This is the latest recevied weather packets stored in our database for station/object EFOU. If no packets are shown the sender has not sent any weather packets the latest 10 day(s).
| Time | Temp. | Humidity | Pressure | Rain* | Wind** | Luminosity | Snow |
|---|---|---|---|---|---|---|---|
| 1778111241 | -0.56° C | 95% | 1013.1 hPa | - | - | - | - |
| 1778110041 | -0.56° C | 95% | 1013.1 hPa | - | - | - | - |
| 1778108841 | -0.56° C | 95% | 1013 hPa | - | - | - | - |
| 1778107640 | -0.56° C | 96% | 1012.9 hPa | - | - | - | - |
| 1778106441 | -0.56° C | 94% | 1012.9 hPa | - | - | - | - |
| 1778105241 | 0.56° C | 92% | 1013 hPa | - | - | - | - |
| 1778104040 | 1.11° C | 92% | 1012.9 hPa | - | - | - | - |
| 1778102840 | 1.11° C | 92% | 1012.8 hPa | - | - | - | - |
| 1778101640 | 1.11° C | 90% | 1012.7 hPa | - | - | - | - |
| 1778100440 | 1.67° C | 90% | 1012.8 hPa | - | - | - | - |
| 1778098040 | 1.11° C | 90% | 1012.6 hPa | - | - | - | - |
| 1778096840 | 1.67° C | 90% | 1012.5 hPa | - | - | - | - |
| 1778095640 | 2.78° C | 84% | 1012.5 hPa | - | - | - | - |
| 1778094440 | 3.89° C | 81% | 1012.4 hPa | - | - | - | - |
| 1778093240 | 3.89° C | 80% | 1012.3 hPa | - | - | - | - |
| 1778092040 | 3.89° C | 77% | 1012 hPa | - | - | - | - |
| 1778089639 | 4.44° C | 82% | 1011.7 hPa | - | - | - | - |
| 1778088439 | 4.44° C | 81% | 1011.5 hPa | - | - | - | - |
| 1778087239 | 4.44° C | 79% | 1011.3 hPa | - | - | - | - |
| 1778086039 | 4.44° C | 79% | 1011.1 hPa | - | - | - | - |
| 1778084839 | 5° C | 76% | 1011 hPa | - | - | - | - |
| 1778083639 | 5.56° C | 73% | 1010.8 hPa | - | - | - | - |
| 1778082439 | 5.56° C | 74% | 1010.7 hPa | - | - | - | - |
| 1778081239 | 5.56° C | 73% | 1010.6 hPa | - | - | - | - |
| 1778080039 | 5.56° C | 74% | 1010.4 hPa | - | - | - | - |
* Rain since midnight (hover to see other rain measurements)
** Current wind speed in m/s (hover to see current wind gust speed)